Regional Weather Roundup
Issued by NWS Green Bay, WI

Home | Current Version | Previous Version | Text Only | Print | Product List | Glossary On
Versions: 1 2 3 4 5 6 7 8 9 10 11 12 13 14 15 16 17 18 19 20 21 22 23 24 25 26 27 28 29 30 31 32 33 34 35 36 37 38 39 40 41 42 43 44 45 46 47 48 49 50
000
ASUS43 KGRB 311211
RWRGRB

NORTH-CENTRAL AND NORTHEAST WISCONSIN REGIONAL WEATHER ROUNDUP
NATIONAL WEATHER SERVICE GREEN BAY WI
700 AM CDT TUE MAY 31 2016

WIZ005-009-010>012-018-019-311300-
NORTH CENTRAL WISCONSIN

CITY           SKY/WX    TMP DP  RH WIND       PRES   REMARKS
IRONWOOD       CLOUDY    54  46  76 E9          N/A
MANITOWISH WTR NOT AVBL
ARBOR VITAE    CLOUDY    55  49  82 E8        30.00F
EAGLE RIVER      N/A     50  43  77 E8        30.05F
LAND O LAKES   CLOUDY    50  44  79 SE8       30.08F
RHINELANDER    LGT RAIN  51  46  83 E16       30.04F
PHILLIPS       CLOUDY    56  50  80 E6        29.98R
ANTIGO         CLOUDY    49  46  89 E9        30.06S
TOMAHAWK       CLOUDY    55  49  82 E5        30.02R
MERRILL        PTSUNNY   55  50  85 SE12G18   30.02R
$$

WIZ013-073-311300-
NORTHEAST WISCONSIN

CITY           SKY/WX    TMP DP  RH WIND       PRES   REMARKS
IRON MOUNTAIN  PTSUNNY   49  41  74 E5        30.11R
MARINETTE      MOSUNNY   52  45  76 NE7       30.13R
OCONTO         CLOUDY    53  50  88 NE7       30.10S
$$

WIZ017-030-035>037-045-311300-
CENTRAL WISCONSIN

CITY           SKY/WX    TMP DP  RH WIND       PRES   REMARKS
MEDFORD        PTSUNNY   58  54  87 E8        29.98S
WAUSAU         CLOUDY    57  50  77 E12       30.00F
MOSINEE        SUNNY     55  54  94 E13G20    30.02F
MARSHFIELD     MOSUNNY   63  55  75 E13       29.98R
WISC RAPIDS    CLOUDY    61  54  77 E13       30.01R
STEVENS POINT  MOSUNNY   56  52  84 E12       30.03R
WAUPACA        CLOUDY    59  56  91 E9        30.03S
SHAWANO        LGT RAIN  55  49  79 E17       30.07F
CLINTONVILLE   CLOUDY    54  46  76 E12G17    30.06R
WAUTOMA        PTSUNNY  N/A N/A N/A E7        30.02R
$$

WIZ038-039-048-051-311300-
FOX VALLEY

CITY           SKY/WX    TMP DP  RH WIND       PRES   REMARKS
NWS GREEN BAY  MOSUNNY   57  51  80 NE15      30.08R
APPLETON       PTSUNNY   57  48  72 E17       30.03S
OSHKOSH        RAIN      61  57  87 NE8       30.03R FOG
FOND DU LAC    LGT RAIN  64  58  80 E7        30.03R
$$

WIZ022-050-052-311300-
EAST CENTRAL WISCONSIN

CITY           SKY/WX    TMP DP  RH WIND       PRES   REMARKS
EPHRAIM        FAIR      51  45  80 NE10      30.10R
STURGEON BAY   NOT AVBL
MANITOWOC      CLOUDY    54  48  80 N7        30.08S
SHEBOYGAN      CLOUDY    55  50  83 NE12      30.05S
$$

LMZ563-521-522-541>543-311300-
LAKESHORE

STATION/POSITION TIME  TEMP    WIND        PRES    VSBY  WAVE
                       AIR SEA DIR/SP/G                  HT/PER
                 (UTC) (F)     (DEG/KT/KT) (MB)    (MI)  (FT/S)
SHEBOYGAN LKSHOR 1200   50     360/ 16/ 17 1018.0S
KEWAUNEE LKSHORE 1100   50      20/ 12/ 18 1017.4R
NORTHPORT PIER   1100   51      50/  8/ 10 1019.3R
N MID LAKE BUOY  1150   48 47   40/ 10/ 12 1019.4R         1/ 3
CHAMBERS ISLAND  1100   52      10/ 11/ 16 1019.3R
MENOMINEE LKSHOR 1100   52      30/ 15/ 17 1017.9R
$$



USA.gov is the U.S. government's official web portal to all federal, state and local government web resources and services.